STARLINK-34601, 65084

Orbit data source: Space-Track

STARLINK-34601, 65084 is a payload satellite owned by SpaceX/Seattle (US) in LEO that was launched on Mon, 04 Aug 2025 UTC via an FALCON 9 launch vehicle from the Air Force Eastern Test Range (AFETR). Payload-class satellites include a variety of spacecraft equipped with specific instruments for various scientific and technological missions. These include communications satellites like Starlink; space stations such as the ISS; scientific satellites like the Hubble; Earth observation satellites from companies like Planet Labs, Umbra, and HawkEye 360; GPS; miniature CubeSats for education and research; and military/defense satellites.

Loading next visibility...
Identifier
65084, 2025-167G
Orbit
LEO
Country
Flag of USUS
Related business
Manufacturer
SpaceX/Seattle
Mission
Operational Commercial Communications
Bus & Motor
STARLINK V2MO, Unknown motor
Mass
575 kg wet, ~530 kg dry
Launch date (UTC)
2025-08-04 (9 months ago)
Launch vehicle
FALCON 9
Launch site
Air Force Eastern Test Range (AFETR)
Object type
Payload
Rocket body
Debris
Shape & HBR
Box + 2 Pan, 17.7 m
Radar Cross Section
36.964 m², Large (>1 m²)

Expand to show TLE details & history
Last TLE update: 12 hours ago

TLE from 12 hours ago
0 STARLINK-34601
1 65084U 25167G   26127.28059017  .00025876  00000-0  60174-3 0  9993
2 65084  53.1600 113.5680 0001260 134.9913 225.1195 15.42176232 42456
Epoch: 2026-05-07T06:44Z
TLE epoch observation values (Epoch: 2026-05-07T06:44:02.990Z)
Latitude
-0.00005°
Longitude
147.42651°
Altitude
441.198 km
Speed
7.648 km/s
True Right ascension
07h 34m 16s
True Declination
0° 00' 00"
Sunlit
Object was in daylight at epoch
Visualization orbit readout
Latitude
Unknown
Longitude
Unknown
Altitude
Unknown
Speed
Unknown
Apparent Right ascension
Unknown
Apparent Declination
Unknown
Sunlit
N/A
Visualization observer readout
Local Sidereal Time
02:53:48
Azimuth
Unknown
Elevation
Unknown
Doppler factor
Unknown
Orbital elements
Apogee altitude
440.805 km
Perigee altitude
439.086 km
Semi-major axis
6,818.083 km
Eccentricity
0.00013
Inclination
53.16°
RAAN
113.568°
Arg. of periapsis
134.9913°
True anomaly
225.10927°
Mean anomaly
225.1195°
Eccentric anomaly
225.11439°
Mean motion
3.85523 °/min
Orbital period
93.38 mins
BSTAR
0.00060174
Loading maneuver chart data...
Computing Atmospheric mass density...
Loading historical data...
Loading historical data...
Loading historical data...
Loading historical data...
Loading historical data...
Loading historical data...
Loading historical data...

Documentation

Showing up to 5 results
|